TimeEDT,TemperatureF,Dew PointF,Humidity,Sea Level PressureIn,VisibilityMPH,Wind Direction,Wind SpeedMPH,Gust SpeedMPH,PrecipitationIn,Events,Conditions,WindDirDegrees,DateUTC
12:53 AM,63.0,59.0,87,30.22,10.0,SE,3.5,-,N/A,,Scattered Clouds,130,2012-09-13 04:53:00
1:53 AM,61.0,57.9,90,30.21,10.0,Calm,Calm,-,N/A,,Mostly Cloudy,0,2012-09-13 05:53:00
2:53 AM,63.0,60.1,90,30.21,10.0,Calm,Calm,-,N/A,,Overcast,0,2012-09-13 06:53:00
3:53 AM,63.0,60.1,90,30.22,10.0,Calm,Calm,-,N/A,,Overcast,0,2012-09-13 07:53:00
4:53 AM,64.0,60.1,87,30.22,10.0,SSE,3.5,-,N/A,,Overcast,150,2012-09-13 08:53:00
5:53 AM,64.0,61.0,90,30.23,10.0,East,3.5,-,N/A,,Overcast,100,2012-09-13 09:53:00
6:53 AM,64.0,60.1,87,30.25,10.0,Calm,Calm,-,N/A,,Overcast,0,2012-09-13 10:53:00
7:53 AM,64.0,61.0,90,30.26,9.0,Calm,Calm,-,N/A,,Overcast,0,2012-09-13 11:53:00
8:53 AM,64.9,61.0,87,30.27,10.0,Calm,Calm,-,N/A,,Overcast,0,2012-09-13 12:53:00
9:53 AM,68.0,60.1,76,30.27,10.0,SE,5.8,-,N/A,,Overcast,140,2012-09-13 13:53:00
10:53 AM,73.0,61.0,66,30.27,10.0,Calm,Calm,-,N/A,,Overcast,0,2012-09-13 14:53:00
11:53 AM,78.1,59.0,52,30.26,10.0,SSW,6.9,-,N/A,,Scattered Clouds,210,2012-09-13 15:53:00
12:53 PM,79.0,59.0,50,30.25,10.0,South,9.2,-,N/A,,Clear,180,2012-09-13 16:53:00
1:53 PM,78.1,59.0,52,30.24,10.0,SW,5.8,-,N/A,,Scattered Clouds,230,2012-09-13 17:53:00
2:53 PM,81.0,59.0,47,30.21,10.0,SSW,8.1,-,N/A,,Mostly Cloudy,210,2012-09-13 18:53:00
3:53 PM,79.0,57.0,47,30.20,10.0,West,5.8,-,N/A,,Overcast,260,2012-09-13 19:53:00
4:53 PM,80.1,57.0,45,30.19,10.0,SW,3.5,-,N/A,,Scattered Clouds,220,2012-09-13 20:53:00
5:53 PM,79.0,59.0,50,30.19,10.0,South,8.1,-,N/A,,Mostly Cloudy,190,2012-09-13 21:53:00
6:53 PM,75.9,60.1,58,30.19,10.0,SSW,4.6,-,N/A,,Scattered Clouds,200,2012-09-13 22:53:00
7:53 PM,73.0,61.0,66,30.19,10.0,Calm,Calm,-,N/A,,Overcast,0,2012-09-13 23:53:00
8:53 PM,68.0,62.1,81,30.20,10.0,Calm,Calm,-,N/A,,Clear,0,2012-09-14 00:53:00
9:53 PM,64.9,61.0,87,30.21,10.0,Calm,Calm,-,N/A,,Clear,0,2012-09-14 01:53:00
10:53 PM,64.9,62.1,90,30.21,9.0,Calm,Calm,-,N/A,,Scattered Clouds,0,2012-09-14 02:53:00
11:53 PM,64.0,60.1,87,30.21,9.0,SE,3.5,-,N/A,,Scattered Clouds,140,2012-09-14 03:53:00